NOAA 16 DEB, 41711

Orbit data source: Space-Track

NOAA 16 DEB, 41711 is space debris in SSO originally from a launch on Thu, 21 Sep 2000 UTC launched from the Air Force Western Test Range (AFWTR). Debris objects in space refer to the collection of defunct objects orbiting the Earth. Examples of debris include non-operational satellites, rocket bodies, and fragments generated from explosions, collisions, or faulty payload assembly.

Loading next visibility...
Identifier
41711, 2000-055PR
Orbit
SSO
Country
Flag of USUS
Related business
Manufacturer
Unknown
Mission
Spacecraft
Bus & Motor
Unknown
Mass
Unknown
Launch date (UTC)
2000-09-21 (25 years ago)
Launch vehicle
Unknown
Launch site
Air Force Western Test Range (AFWTR)
Object type
Payload
Rocket body
Debris
Shape & HBR
Unknown shape, 0.1 m
Radar Cross Section
Small (<0.1 m²)

Expand to show TLE details & history
Last TLE update: 1 day ago

TLE from 1 day ago
0 NOAA 16 DEB
1 41711U 00055PR  26037.55769848  .00013331  00000-0  36707-2 0  9990
2 41711  98.7856 159.4894 0013159 207.0853 152.9653 14.46957563509222
Epoch: 2026-02-06T13:23Z
TLE epoch observation values (Epoch: 2026-02-06T13:23:05.148Z)
Latitude
-0.00002°
Longitude
-177.9759°
Altitude
746.894 km
Speed
7.477 km/s
True Right ascension
10h 37m 57s
True Declination
0° 00' 00"
Sunlit
Object was in full shadow at epoch
Visualization orbit readout
Latitude
Unknown
Longitude
Unknown
Altitude
Unknown
Speed
Unknown
Apparent Right ascension
Unknown
Apparent Declination
Unknown
Sunlit
N/A
Visualization observer readout
Local Sidereal Time
17:36:27
Azimuth
Unknown
Elevation
Unknown
Doppler factor
Unknown
Orbital elements
Apogee altitude
742.086 km
Perigee altitude
723.372 km
Semi-major axis
7,110.866 km
Eccentricity
0.00132
Inclination
98.7856°
RAAN
159.4894°
Arg. of periapsis
207.0853°
True anomaly
153.03374°
Mean anomaly
152.9653°
Eccentric anomaly
152.99953°
Mean motion
3.61959 °/min
Orbital period
99.46 mins
BSTAR
0.0036707
Loading maneuver chart data...
Computing Atmospheric mass density...
Loading historical data...
Loading historical data...
Loading historical data...
Loading historical data...
Loading historical data...
Loading historical data...
Loading historical data...

Documentation

Showing up to 5 results
|